| time (UTC) | temp F | wind direction | speed MPH | gust MPH | rain 1hr in | rain 24hr in | rain mn in | humidity % | barometer mb |
| 20260905100952 | 53 | 166 | 0.0 | 0.0 | 0.00 | 0.00 | 0.00 | 91 | 1017.2 |
| 20260905100449 | 53 | 166 | 0.0 | 0.0 | 0.00 | 0.00 | 0.00 | 91 | 1017.2 |
| 20260905095955 | 53 | 166 | 0.0 | 0.0 | 0.00 | 0.00 | 0.00 | 91 | 1017.0 |
| 20260905095948 | 53 | 166 | 0.0 | 0.0 | 0.00 | 0.00 | 0.00 | 91 | 1017.1 |
| 20260905094946 | 53 | 165 | 0.0 | 0.0 | 0.00 | 0.00 | 0.00 | 91 | 1016.9 |
| 20260905094446 | 53 | 166 | 0.0 | 0.0 | 0.00 | 0.00 | 0.00 | 91 | 1016.9 |
| 20260905093942 | 53 | 166 | 0.0 | 0.0 | 0.00 | 0.00 | 0.00 | 91 | 1016.9 |
| 20260905093440 | 53 | 166 | 0.0 | 0.0 | 0.00 | 0.00 | 0.00 | 91 | 1016.9 |
| 20260905092938 | 53 | 166 | 0.0 | 0.0 | 0.00 | 0.00 | 0.00 | 91 | 1016.8 |
| 20260905092438 | 53 | 166 | 0.0 | 0.0 | 0.00 | 0.00 | 0.00 | 91 | 1016.6 |
| 20260905091938 | 53 | 166 | 0.0 | 0.0 | 0.00 | 0.00 | 0.00 | 91 | 1016.7 |
| 20260905091437 | 53 | 166 | 0.0 | 0.0 | 0.00 | 0.00 | 0.00 | 91 | 1016.7 |
| 20260905090938 | 53 | 166 | 0.0 | 0.0 | 0.00 | 0.00 | 0.00 | 91 | 1016.6 |
| 20260905090437 | 53 | 166 | 0.0 | 0.0 | 0.00 | 0.00 | 0.00 | 91 | 1016.4 |
| 20260905085938 | 53 | 166 | 0.0 | 0.0 | 0.00 | 0.00 | 0.00 | 91 | 1016.4 |
| 20260905085437 | 53 | 166 | 0.0 | 0.0 | 0.00 | 0.00 | 0.00 | 90 | 1016.3 |
| 20260905085209 | 53 | 166 | 0.0 | 0.0 | 0.00 | 0.00 | 0.00 | 90 | 1016.3 |
| 20260905084438 | 53 | 166 | 0.0 | 0.0 | 0.00 | 0.00 | 0.00 | 90 | 1016.2 |
| 20260905083936 | 53 | 158 | 0.0 | 0.0 | 0.00 | 0.00 | 0.00 | 90 | 1016.3 |
| 20260905083434 | 53 | 158 | 0.0 | 0.0 | 0.00 | 0.00 | 0.00 | 90 | 1016.2 |
| 20260905082935 | 53 | 158 | 0.0 | 0.0 | 0.00 | 0.00 | 0.00 | 90 | 1016.2 |
| 20260905082432 | 53 | 158 | 0.0 | 0.0 | 0.00 | 0.00 | 0.00 | 90 | 1016.1 |
| 20260905081931 | 53 | 158 | 0.0 | 0.0 | 0.00 | 0.00 | 0.00 | 90 | 1016.1 |
| 20260905081703 | 53 | 157 | 0.0 | 0.0 | 0.00 | 0.00 | 0.00 | 90 | 1016.0 |
| 20260905081204 | 53 | 158 | 0.0 | 0.0 | 0.00 | 0.00 | 0.00 | 90 | 1015.9 |
| 20260905080701 | 53 | 158 | 0.0 | 0.0 | 0.00 | 0.00 | 0.00 | 90 | 1016.0 |
| 20260905075929 | 53 | 158 | 0.0 | 0.0 | 0.00 | 0.00 | 0.00 | 90 | 1015.9 |
| 20260905075656 | 53 | 143 | 0.0 | 0.0 | 0.00 | 0.00 | 0.00 | 90 | 1016.0 |
| 20260905074924 | 53 | 143 | 0.0 | 0.0 | 0.00 | 0.00 | 0.00 | 90 | 1015.9 |
| 20260905074422 | 53 | 143 | 0.0 | 0.0 | 0.00 | 0.00 | 0.00 | 90 | 1016.0 |
| 20260905074153 | 53 | 143 | 0.0 | 0.0 | 0.00 | 0.00 | 0.00 | 90 | 1015.8 |
| 20260905073411 | 53 | 143 | 0.0 | 0.0 | 0.00 | 0.00 | 0.00 | 90 | 1015.8 |
| 20260905072910 | 53 | 89 | 0.0 | 0.0 | 0.00 | 0.00 | 0.00 | 90 | 1015.8 |
| 20260905072409 | 53 | 89 | 0.0 | 0.0 | 0.00 | 0.00 | 0.00 | 90 | 1015.8 |
| 20260905071903 | 53 | 89 | 0.0 | 0.0 | 0.00 | 0.00 | 0.00 | 90 | 1015.8 |
| 20260905071357 | 53 | 89 | 0.0 | 0.0 | 0.00 | 0.00 | 0.00 | 90 | 1015.9 |
| 20260905070855 | 53 | 89 | 0.0 | 0.0 | 0.00 | 0.00 | 0.00 | 90 | 1015.8 |
| 20260905070348 | 53 | 89 | 0.0 | 0.0 | 0.00 | 0.00 | 0.00 | 90 | 1015.7 |
| 20260905065848 | 53 | 89 | 0.0 | 0.0 | 0.00 | 0.00 | 0.00 | 90 | 1015.8 |
| 20260905065338 | 53 | 89 | 0.0 | 0.0 | 0.00 | 0.00 | 0.00 | 90 | 1015.8 |
| 20260905064825 | 52 | 89 | 0.0 | 0.0 | 0.00 | 0.00 | 0.00 | 90 | 1015.8 |
| 20260905064319 | 52 | 89 | 0.0 | 0.0 | 0.00 | 0.00 | 0.00 | 90 | 1015.7 |
| 20260905063821 | 52 | 88 | 0.0 | 0.0 | 0.00 | 0.00 | 0.00 | 90 | 1015.8 |
| 20260905063311 | 52 | 87 | 0.0 | 0.0 | 0.00 | 0.00 | 0.00 | 90 | 1015.7 |
| 20260905062806 | 52 | 87 | 0.0 | 0.0 | 0.00 | 0.00 | 0.00 | 90 | 1015.7 |
| 20260905062306 | 52 | 87 | 0.0 | 0.0 | 0.00 | 0.00 | 0.00 | 90 | 1015.7 |
| 20260905062256 | 52 | 87 | 0.0 | 0.0 | 0.00 | 0.00 | 0.00 | 90 | 1015.7 |
| 20260905061516 | 52 | 87 | 0.0 | 0.0 | 0.00 | 0.00 | 0.00 | 90 | 1015.8 |
| 20260905060744 | 52 | 0.0 | 0.0 | 0.00 | 0.00 | 0.00 | 90 | ||
| 20260905055819 | 52 | 87 | 0.0 | 0.0 | 0.00 | 0.00 | 0.00 | 90 | 1015.8 |
| 20260905055543 | 52 | 87 | 0.0 | 0.0 | 0.00 | 0.00 | 0.00 | 90 | 1015.8 |
| 20260905054810 | 52 | 87 | 0.0 | 0.0 | 0.00 | 0.00 | 0.00 | 90 | 1016.0 |
| 20260905054527 | 52 | 87 | 0.0 | 0.0 | 0.00 | 0.00 | 0.00 | 90 | 1016.0 |
| 20260905053742 | 53 | 0.0 | 0.0 | 0.00 | 0.00 | 0.00 | 89 | ||
| 20260905052319 | 53 | 0.0 | 0.0 | 0.00 | 0.00 | 0.00 | 89 | ||
| 20260905051345 | 53 | 87 | 0.0 | 0.0 | 0.00 | 0.00 | 0.00 | 89 | 1015.8 |
| 20260905050834 | 53 | 0.0 | 0.0 | 0.00 | 0.00 | 0.00 | 89 | ||
| 20260905050040 | 53 | 87 | 0.0 | 0.0 | 0.00 | 0.00 | 0.00 | 88 | 1015.8 |
| 20260905045301 | 53 | 87 | 0.0 | 0.0 | 0.00 | 0.00 | 0.00 | 88 | 1015.9 |
| 20260905044310 | 53 | 87 | 0.0 | 0.0 | 0.00 | 0.00 | 0.00 | 88 | 1015.9 |
| 20260905044040 | 54 | 87 | 0.0 | 0.0 | 0.00 | 0.00 | 0.00 | 87 | 1016.0 |
| 20260905042909 | 54 | 87 | 0.0 | 0.0 | 0.00 | 0.00 | 0.00 | 87 | 1016.0 |
| 20260905042356 | 54 | 87 | 0.0 | 0.0 | 0.00 | 0.00 | 0.00 | 87 | 1015.9 |
| 20260905041847 | 54 | 87 | 0.0 | 0.0 | 0.00 | 0.00 | 0.00 | 87 | 1016.1 |
| 20260905041333 | 54 | 87 | 0.0 | 0.0 | 0.00 | 0.00 | 0.00 | 87 | 1016.0 |
| 20260905040819 | 55 | 0.0 | 0.0 | 0.00 | 0.00 | 0.00 | 86 | ||
| 20260905035753 | 55 | 87 | 0.0 | 0.0 | 0.00 | 0.00 | 0.00 | 86 | 1015.8 |
| 20260905035235 | 55 | 87 | 0.0 | 0.0 | 0.00 | 0.00 | 0.00 | 85 | 1015.9 |
| 20260905034235 | 55 | 87 | 0.0 | 0.0 | 0.00 | 0.00 | 0.00 | 85 | 1015.9 |
| 20260905033731 | 55 | 87 | 0.0 | 0.0 | 0.00 | 0.00 | 0.00 | 85 | 1015.9 |
| 20260905032727 | 55 | 87 | 0.0 | 0.0 | 0.00 | 0.00 | 0.00 | 85 | 1015.7 |
| 20260905032456 | 56 | 87 | 0.0 | 0.0 | 0.00 | 0.00 | 0.00 | 85 | 1015.8 |
| 20260905031329 | 56 | 87 | 0.0 | 0.0 | 0.00 | 0.00 | 0.00 | 85 | 1016.0 |
| 20260905030828 | 56 | 0.0 | 0.0 | 0.00 | 0.00 | 0.00 | 85 | ||
| 20260905025819 | 56 | 87 | 0.0 | 0.0 | 0.00 | 0.00 | 0.00 | 85 | 1016.0 |
| 20260905025259 | 56 | 0.0 | 0.0 | 0.00 | 0.00 | 0.00 | 86 | ||
| 20260905024235 | 56 | 87 | 0.0 | 0.0 | 0.00 | 0.00 | 0.00 | 86 | 1015.8 |
| 20260905023728 | 56 | 87 | 0.0 | 0.0 | 0.00 | 0.00 | 0.00 | 86 | 1016.0 |
| 20260905022748 | 56 | 87 | 0.0 | 0.0 | 0.00 | 0.00 | 0.00 | 87 | 1015.9 |
| 20260905022512 | 56 | 82 | 0.0 | 0.0 | 0.00 | 0.00 | 0.00 | 87 | 1015.9 |
| 20260905021049 | 56 | 81 | 0.0 | 0.0 | 0.00 | 0.00 | 0.00 | 87 | 1015.8 |
| 20260905020552 | 56 | 0.0 | 0.0 | 0.00 | 0.00 | 0.00 | 87 | ||
| 20260905015808 | 56 | 0.0 | 0.0 | 0.00 | 0.00 | 0.00 | 86 | ||
| 20260905015801 | 56 | 80 | 0.0 | 0.0 | 0.00 | 0.00 | 0.00 | 87 | 1015.9 |
| 20260905014321 | 56 | 80 | 0.0 | 0.0 | 0.00 | 0.00 | 0.00 | 86 | 1015.9 |
| 20260905014315 | 57 | 0.0 | 0.0 | 0.00 | 0.00 | 0.00 | 84 | ||
| 20260905012821 | 57 | 88 | 0.0 | 0.0 | 0.00 | 0.00 | 0.00 | 84 | 1015.8 |
| 20260905012535 | 58 | 80 | 0.0 | 0.0 | 0.00 | 0.00 | 0.00 | 82 | 1015.8 |
| 20260905011305 | 58 | 85 | 1.0 | 1.0 | 0.00 | 0.00 | 0.00 | 82 | 1015.8 |
| 20260905010754 | 58 | 120 | 1.0 | 0.0 | 0.00 | 0.00 | 0.00 | 82 | 1015.7 |
| 20260905005805 | 59 | 118 | 1.0 | 1.0 | 0.00 | 0.00 | 0.00 | 82 | 1015.7 |
| 20260905005254 | 59 | 80 | 3.0 | 0.0 | 0.00 | 0.00 | 0.00 | 82 | 1015.8 |
| 20260905004254 | 59 | 102 | 2.0 | 9.0 | 0.00 | 0.00 | 0.00 | 82 | 1015.6 |
| 20260905003744 | 58 | 0.0 | 0.0 | 0.00 | 0.00 | 0.00 | 83 | ||
| 20260905002819 | 58 | 69 | 0.0 | 0.0 | 0.00 | 0.00 | 0.00 | 83 | 1015.2 |
| 20260905002305 | 58 | 86 | 1.0 | 0.0 | 0.00 | 0.00 | 0.00 | 83 | 1015.3 |
| 20260905001301 | 58 | 86 | 1.0 | 3.0 | 0.00 | 0.00 | 0.00 | 83 | 1015.4 |
| 20260905001023 | 58 | 98 | 1.0 | 2.0 | 0.00 | 0.00 | 0.00 | 82 | 1015.1 |
| 20260904235759 | 58 | 110 | 1.0 | 2.0 | 0.00 | 0.00 | 0.00 | 82 | 1015.1 |
| 20260904235250 | 59 | 131 | 1.0 | 0.0 | 0.00 | 0.00 | 0.00 | 82 | 1015.1 |
| 20260904234249 | 59 | 91 | 1.0 | 3.0 | 0.00 | 0.00 | 0.00 | 81 | 1015.0 |
| 20260904234019 | 59 | 0.0 | 0.0 | 0.00 | 0.00 | 0.00 | 81 | ||
| 20260904232727 | 59 | 94 | 1.0 | 2.0 | 0.00 | 0.00 | 0.00 | 81 | 1014.9 |
| 20260904232226 | 60 | 97 | 1.0 | 1.0 | 0.00 | 0.00 | 0.00 | 80 | 1015.0 |
| 20260904231314 | 60 | 95 | 1.0 | 2.0 | 0.00 | 0.00 | 0.00 | 80 | 1014.7 |
| 20260904230755 | 60 | 0.0 | 0.0 | 0.00 | 0.00 | 0.00 | 79 | ||
| 20260904225831 | 60 | 91 | 1.0 | 3.0 | 0.00 | 0.00 | 0.00 | 79 | 1014.7 |
| 20260904225315 | 61 | 124 | 0.0 | 1.0 | 0.00 | 0.00 | 0.00 | 78 | 1014.5 |
| 20260904224308 | 61 | 98 | 0.0 | 1.0 | 0.00 | 0.00 | 0.00 | 78 | 1014.3 |
| 20260904223757 | 61 | 0.0 | 0.0 | 0.00 | 0.00 | 0.00 | 78 | ||
| 20260904222737 | 61 | 112 | 0.0 | 0.0 | 0.00 | 0.00 | 0.00 | 78 | 1014.2 |
| 20260904222234 | 62 | 0.0 | 0.0 | 0.00 | 0.00 | 0.00 | 77 | ||
| 20260904221248 | 62 | 107 | 0.0 | 1.0 | 0.00 | 0.00 | 0.00 | 75 | 1014.0 |
| 20260904220515 | 63 | 0.0 | 0.0 | 0.00 | 0.00 | 0.00 | 73 | ||
| 20260904215736 | 63 | 108 | 0.0 | 0.0 | 0.00 | 0.00 | 0.00 | 73 | 1013.8 |
| 20260904215236 | 65 | 130 | 0.0 | 0.0 | 0.00 | 0.00 | 0.00 | 69 | 1013.8 |
| 20260904214339 | 65 | 141 | 0.0 | 0.0 | 0.00 | 0.00 | 0.00 | 67 | 1013.9 |
| 20260904212801 | 66 | 231 | 0.0 | 0.0 | 0.00 | 0.00 | 0.00 | 63 | 1013.9 |
| 20260904212300 | 67 | 231 | 0.0 | 0.0 | 0.00 | 0.00 | 0.00 | 60 | 1013.8 |
| 20260904211305 | 67 | 231 | 0.0 | 0.0 | 0.00 | 0.00 | 0.00 | 59 | 1013.9 |
| 20260904210802 | 67 | 0.0 | 0.0 | 0.00 | 0.00 | 0.00 | 58 | ||
| 20260904205840 | 67 | 231 | 0.0 | 0.0 | 0.00 | 0.00 | 0.00 | 58 | 1013.8 |
| 20260904205331 | 67 | 0.0 | 0.0 | 0.00 | 0.00 | 0.00 | 56 | ||
| 20260904204308 | 67 | 230 | 0.0 | 1.0 | 0.00 | 0.00 | 0.00 | 56 | 1013.7 |
| 20260904203808 | 68 | 0.0 | 0.0 | 0.00 | 0.00 | 0.00 | 54 | ||
| 20260904203019 | 68 | 217 | 0.0 | 1.0 | 0.00 | 0.00 | 0.00 | 53 | 1013.5 |
| 20260904202247 | 68 | 232 | 0.0 | 0.0 | 0.00 | 0.00 | 0.00 | 53 | 1013.5 |
| 20260904201252 | 69 | 238 | 0.0 | 1.0 | 0.00 | 0.00 | 0.00 | 53 | 1013.5 |
| 20260904200750 | 70 | 0.0 | 0.0 | 0.00 | 0.00 | 0.00 | 51 | ||
| 20260904195735 | 70 | 259 | 0.0 | 1.0 | 0.00 | 0.00 | 0.00 | 51 | 1013.5 |
| 20260904195237 | 69 | 241 | 0.0 | 0.0 | 0.00 | 0.00 | 0.00 | 51 | 1013.4 |
| 20260904194254 | 69 | 241 | 0.0 | 1.0 | 0.00 | 0.00 | 0.00 | 51 | 1013.6 |
| 20260904193753 | 69 | 0.0 | 0.0 | 0.00 | 0.00 | 0.00 | 51 | ||
| 20260904192741 | 69 | 268 | 0.0 | 0.0 | 0.00 | 0.00 | 0.00 | 50 | 1013.3 |
| 20260904192240 | 69 | 0.0 | 0.0 | 0.00 | 0.00 | 0.00 | 52 | ||
| 20260904191224 | 69 | 219 | 0.0 | 1.0 | 0.00 | 0.00 | 0.00 | 51 | 1013.2 |
| 20260904190724 | 68 | 222 | 0.0 | 1.0 | 0.00 | 0.00 | 0.00 | 51 | 1013.1 |
| 20260904185731 | 68 | 227 | 0.0 | 1.0 | 0.00 | 0.00 | 0.00 | 52 | 1013.0 |
| 20260904185230 | 68 | 0.0 | 0.0 | 0.00 | 0.00 | 0.00 | 51 | ||
| 20260904184020 | 68 | 222 | 0.0 | 2.0 | 0.00 | 0.00 | 0.00 | 51 | 1013.2 |
| 20260904182748 | 68 | 217 | 0.0 | 1.0 | 0.00 | 0.00 | 0.00 | 50 | 1013.2 |
| 20260904182246 | 68 | 0.0 | 0.0 | 0.00 | 0.00 | 0.00 | 52 | ||
| 20260904181315 | 68 | 224 | 0.0 | 1.0 | 0.00 | 0.00 | 0.00 | 53 | 1013.5 |
| 20260904180819 | 68 | 0.0 | 0.0 | 0.00 | 0.00 | 0.00 | 51 | ||
| 20260904175849 | 68 | 237 | 0.0 | 1.0 | 0.00 | 0.00 | 0.00 | 52 | 1013.6 |
| 20260904175349 | 68 | 0.0 | 0.0 | 0.00 | 0.00 | 0.00 | 54 | ||
| 20260904174545 | 68 | 214 | 0.0 | 1.0 | 0.00 | 0.00 | 0.00 | 53 | 1013.6 |
| 20260904173808 | 67 | 0.0 | 0.0 | 0.00 | 0.00 | 0.00 | 54 | ||
| 20260904172834 | 67 | 207 | 0.0 | 1.0 | 0.00 | 0.00 | 0.00 | 53 | 1013.6 |
| 20260904172330 | 67 | 0.0 | 0.0 | 0.00 | 0.00 | 0.00 | 54 | ||
| 20260904171307 | 67 | 218 | 0.0 | 2.0 | 0.00 | 0.00 | 0.00 | 53 | 1013.6 |
| 20260904170754 | 67 | 0.0 | 0.0 | 0.00 | 0.00 | 0.00 | 54 | ||
| 20260904165801 | 67 | 239 | 1.0 | 1.0 | 0.00 | 0.00 | 0.00 | 54 | 1013.9 |
| 20260904165532 | 67 | 0.0 | 0.0 | 0.00 | 0.00 | 0.00 | 55 | ||
| 20260904164608 | 67 | 239 | 2.0 | 9.0 | 0.00 | 0.00 | 0.00 | 55 | 1014.0 |
| 20260904163826 | 68 | 262 | 1.0 | 9.0 | 0.00 | 0.00 | 0.00 | 54 | 1014.1 |
| 20260904163314 | 68 | 261 | 0.0 | 5.0 | 0.00 | 0.00 | 0.00 | 53 | 1014.1 |
| 20260904162755 | 68 | 209 | 0.0 | 5.0 | 0.00 | 0.00 | 0.00 | 53 | 1014.2 |
| 20260904162243 | 69 | 0.0 | 0.0 | 0.00 | 0.00 | 0.00 | 52 | ||
| 20260904161315 | 69 | 302 | 0.0 | 1.0 | 0.00 | 0.00 | 0.00 | 52 | 1014.3 |
| 20260904160802 | 69 | 297 | 0.0 | 0.0 | 0.00 | 0.00 | 0.00 | 52 | 1014.3 |
| 20260904155904 | 69 | 297 | 0.0 | 1.0 | 0.00 | 0.00 | 0.00 | 52 | 1014.8 |
| 20260904155352 | 69 | 0.0 | 0.0 | 0.00 | 0.00 | 0.00 | 53 | 1014.6 | |
| 20260904154858 | 68 | 295 | 0.0 | 2.0 | 0.00 | 0.00 | 0.00 | 53 | 1014.3 |
| 20260904153830 | 68 | 0.0 | 0.0 | 0.00 | 0.00 | 0.00 | 53 | ||
| 20260904152803 | 68 | 224 | 0.0 | 1.0 | 0.00 | 0.00 | 0.00 | 53 | 1014.6 |
| 20260904152523 | 67 | 0.0 | 0.0 | 0.00 | 0.00 | 0.00 | 53 | ||
| 20260904151320 | 67 | 262 | 0.0 | 2.0 | 0.00 | 0.00 | 0.00 | 53 | 1014.7 |
| 20260904150809 | 67 | 0.0 | 0.0 | 0.00 | 0.00 | 0.00 | 54 | ||
| 20260904145549 | 67 | 214 | 0.0 | 2.0 | 0.00 | 0.00 | 0.00 | 55 | 1014.9 |
| 20260904145050 | 68 | 0.0 | 1.0 | 0.00 | 0.00 | 0.00 | 54 | ||
| 20260904144344 | 67 | 159 | 0.0 | 1.0 | 0.00 | 0.00 | 0.00 | 55 | 1014.9 |
| 20260904143830 | 66 | 0.0 | 0.0 | 0.00 | 0.00 | 0.00 | 55 | ||
| 20260904142813 | 66 | 203 | 0.0 | 1.0 | 0.00 | 0.00 | 0.00 | 56 | 1014.9 |
| 20260904142259 | 66 | 0.0 | 0.0 | 0.00 | 0.00 | 0.00 | 56 | ||
| 20260904141334 | 66 | 233 | 1.0 | 1.0 | 0.00 | 0.00 | 0.00 | 57 | 1015.0 |
| 20260904140814 | 65 | 0.0 | 0.0 | 0.00 | 0.00 | 0.00 | 58 | ||
| 20260904135847 | 65 | 208 | 1.0 | 6.0 | 0.00 | 0.00 | 0.00 | 57 | 1015.4 |
| 20260904135332 | 66 | 0.0 | 0.0 | 0.00 | 0.00 | 0.00 | 57 | ||
| 20260904134313 | 66 | 228 | 1.0 | 3.0 | 0.00 | 0.00 | 0.00 | 55 | 1015.7 |
| 20260904133813 | 66 | 0.0 | 0.0 | 0.00 | 0.00 | 0.00 | 56 | 1015.8 | |
| 20260904133103 | 66 | 131 | 0.0 | 1.0 | 0.00 | 0.00 | 0.00 | 55 | 1015.9 |
| 20260904132329 | 65 | 0.0 | 0.0 | 0.00 | 0.00 | 0.00 | 58 | ||
| 20260904131239 | 65 | 0.0 | 0.0 | 0.00 | 0.00 | 0.00 | 61 | ||
| 20260904131232 | 65 | 106 | 0.0 | 1.0 | 0.00 | 0.00 | 0.00 | 62 | 1015.9 |
| 20260904130047 | 65 | 137 | 0.0 | 1.0 | 0.00 | 0.00 | 0.00 | 62 | 1016.2 |
| 20260904125314 | 64 | 0.0 | 0.0 | 0.00 | 0.00 | 0.00 | 65 | ||
| 20260904124623 | 64 | 100 | 0.0 | 2.0 | 0.00 | 0.00 | 0.00 | 64 | 1016.5 |
| 20260904123842 | 63 | 0.0 | 0.0 | 0.00 | 0.00 | 0.00 | 73 | ||
| 20260904122815 | 63 | 101 | 0.0 | 2.0 | 0.00 | 0.00 | 0.00 | 75 | 1016.5 |
| 20260904122313 | 62 | 0.0 | 0.0 | 0.00 | 0.00 | 0.00 | 81 | ||
| 20260904121259 | 61 | 100 | 0.0 | 0.0 | 0.00 | 0.00 | 0.00 | 82 | 1016.6 |
| 20260904120757 | 61 | 98 | 0.0 | 0.0 | 0.00 | 0.00 | 0.00 | 86 | 1016.4 |
| 20260904120033 | 61 | 97 | 0.0 | 0.0 | 0.00 | 0.00 | 0.00 | 86 | 1016.2 |
| 20260904115249 | 60 | 0.0 | 0.0 | 0.00 | 0.00 | 0.00 | 88 | ||
| 20260904114328 | 60 | 89 | 0.0 | 0.0 | 0.00 | 0.00 | 0.00 | 89 | 1016.3 |
| 20260904113828 | 60 | 0.0 | 0.0 | 0.00 | 0.00 | 0.00 | 89 | ||
| 20260904112830 | 60 | 91 | 0.0 | 0.0 | 0.00 | 0.00 | 0.00 | 90 | 1016.2 |
| 20260904112044 | 60 | 0.0 | 0.0 | 0.00 | 0.00 | 0.00 | 90 | ||
| 20260904111540 | 60 | 116 | 0.0 | 0.0 | 0.00 | 0.00 | 0.00 | 90 | 1016.2 |
| 20260904110808 | 59 | 0.0 | 0.0 | 0.00 | 0.00 | 0.00 | 90 | ||
| 20260904110053 | 59 | 175 | 0.0 | 0.0 | 0.00 | 0.00 | 0.00 | 90 | 1016.2 |
| 20260904105307 | 58 | 0.0 | 0.0 | 0.00 | 0.00 | 0.00 | 90 | ||
| 20260904104335 | 58 | 219 | 0.0 | 0.0 | 0.00 | 0.00 | 0.00 | 90 | 1016.3 |
| 20260904103825 | 58 | 0.0 | 0.0 | 0.00 | 0.00 | 0.00 | 90 | ||
| 20260904102749 | 58 | 224 | 0.0 | 0.0 | 0.00 | 0.00 | 0.00 | 90 | 1016.1 |
| 20260904102238 | 58 | 0.0 | 0.0 | 0.00 | 0.00 | 0.00 | 90 | ||
| 20260904101304 | 58 | 224 | 0.0 | 0.0 | 0.00 | 0.00 | 0.00 | 90 | 1016.1 |